User: anonymous   Login
Location: Fontevrault
(47.1823°N, 0.0493°E)
Time: 20:36:11
(UTC+00:00)
Language:

Cosmos 1544 Rocket - Orbit

View from above orbital plane
View from above orbital plane
View from above satellite
View from above satellite

Ground track
Ground track

The orbit data is extracted from the following two-line orbital elements,

1 14820U 84027B   21270.53968085  .00000095  00000-0  86298-5 0  9994
2 14820  82.5433 324.8429 0017397 304.5725  55.3848 14.83717793 27762
Epoch (UTC): 27 September 2021 12:57:08
Eccentricity: 0.0017397
inclination: 82.5433°
perigee height: 605 km
apogee height: 630 km
right ascension of ascending node: 324.8429°
argument of perigee: 304.5725°
revolutions per day: 14.83717793
mean anomaly at epoch: 55.3848°
orbit number at epoch: 2776

The dashed part of the orbit path shows where the satellite is in the earth's shadow,  

DLR